map of TAR home
Great Circle Mapper logo
TAR - Airport
Location
City:  Taranto, Apulia, Italy
Name:M. A. Grottaglie
ICAO / IATA:LIBG / TAR

Details
Type:Airport (Aerodrome, Airfield)
Use:Public/Civil
Latitude:4031'03"N (40.517514)
Longitude:1724'12"E (17.403212)
Datum:other
Elevation:215 ft (66 m)
Variation:3.52E (WMM2015 magnetic declination)
0.10 annual change
Runways:1
Longest:5610 × 148 ft (1710 × 45 m), paved

Time
Time Zone:UTC+1 (DST+2)
Local Time:

Weather
METAR:LIBG 181050Z 22009KT 190V260 9999 FEW018 23/11 Q1012

Related Locations
Nearby:
Farthest:CHT: 11694 mi / 18820 km
Waitangi [Tuuta], Chatham Islands, NZ

Find:

   beyond  
but within

Other Information
Maps:
NOTAMs:
Links:
Sources:

  
flag of Italy
flag of Apulia
  

Sectional Chart

Flight Planning
at skyvector.com

Satellite Image

Google Maps Satellite View

 

Copyright © 2004-2015 Karl L. Swartz. All rights reserved.
The Great Circle Mapper name and logo are trademarks of the Great Circle Mapper.
All other trademarks mentioned herein belong to their respective owners.
Please see credits for attibutions and further copyright information.

  Follow gcmap on Facebook Follow gcmap on Twitter Follow gcmap on Google+

hCard Microformat

Geo Microformat